www.pogodaiklimat.ru
ПОГОДА в Бедфорде
Время
и дата
06:35 01.12
06:55 01.12
07:15 01.12
07:35 01.12
07:55 01.12
08:15 01.12
08:35 01.12
08:55 01.12
09:15 01.12
09:35 01.12
09:55 01.12
10:15 01.12
10:35 01.12
10:55 01.12
11:15 01.12
11:35 01.12
11:55 01.12
12:15 01.12
12:35 01.12
12:55 01.12
13:15 01.12
13:35 01.12
13:55 01.12
14:15 01.12
14:35 01.12
14:55 01.12
15:15 01.12
15:35 01.12
15:55 01.12
16:15 01.12
16:35 01.12
16:55 01.12
17:15 01.12
17:35 01.12
17:55 01.12
18:15 01.12
18:35 01.12
18:55 01.12
19:15 01.12
19:35 01.12
19:55 01.12
20:15 01.12
20:35 01.12
20:55 01.12
21:15 01.12
21:35 01.12
21:55 01.12
22:15 01.12
Ветер
(напр.,м/с)
Видим. Явления Облачность Т
(С)
Тd
(С)
f
(%)
Тe
(С)
Тes
(С)
Комфортность P
(гПа)
Po
(гПа)
Тmin
(С)
Tmax
(С)
R
(мм)
R24
(мм)
S
(см)
З 8
{10}
16 км 10/10 1080 м -1.7 -9.8 54 -9 -9 983.3
СЗ 4
{9}
16 км 10/10 1020 м -2.0 -9.7 56 -7 -7 984.0 -2.0
З 6
{8}
16 км 10/10 1020 м -2.0 -10.0 54 -9 -9 984.3
З 6
{10}
16 км 10/10 1020 м -2.0 -10.1 54 -9 -9 984.9
З 6
{8}
16 км 10/10 1080 м -2.0 -10.0 54 -9 -9 985.3
СЗ 8
{15}
16 км 10/10 1080 м -2.0 -10.1 54 -9 -9 985.3
З 9
{15}
16 км 8/8 1080 м -2.1 -10.2 54 -10 -10 985.6
СЗ 9
{13}
16 км 5/5 1080 м -1.8 -9.9 54 -10 -10 985.3
СЗ 11
{14}
16 км ясно -1.6 -10.0 53 -10 -10 985.3
СЗ 6
{14}
16 км ясно -1.4 -9.9 52 -8 -7 985.6
З 3
{11}
16 км ясно -1.1 -10.1 50 -5 -4 986.6
СЗ 4
{8}
16 км 5/5 1080 м -0.2 -9.7 49 -5 -4 986.9
З 4 16 км 5/5 1080 м 0.0 -9.5 49 -5 -4 987.2
З 7
{9}
16 км 5/5 1080 м 0.0 -9.6 48 -6 -6 987.2
СЗ 7
{11}
16 км ясно 0.0 -9.1 50 -6 -5 987.2
СЗ 10
{13}
16 км ясно 0.0 -9.6 48 -7 -7 987.2
СЗ 7
{12}
16 км ясно +0.4 -8.8 50 -6 -5 987.2
З 6
{10}
16 км ясно 0.0 -9.5 49 -6 -4 987.5
СЗ 6 16 км ясно +0.4 -9.2 49 -5 -3 987.5
СЗ 7
{10}
16 км ясно +0.6 -8.9 49 -6 -4 987.5 -2.1 +0.7
СЗ 3 16 км ясно +0.4 -9.5 47 -3 0 987.5
З 5
{7}
16 км ясно +1.0 -9.2 46 -4 -2 987.8
СЗ 5
{9}
16 км ясно +0.7 -9.4 47 -4 -2 988.2
СЗ 4 16 км ясно +0.8 -9.3 47 -4 -1 988.2
СЗ 5 16 км ясно +0.8 -9.1 47 -4 -3 987.8
СЗ 4 16 км ясно +0.7 -9.4 47 -4 -2 988.2
СЗ 3 16 км ясно +0.7 -9.7 46 -3 -2 988.5
СЗ 5 16 км ясно +0.6 -9.5 47 -5 -4 988.5
СЗ 4 16 км ясно +0.5 -9.3 48 -4 -3 988.8
СЗ 3 16 км ясно +0.2 -9.4 48 -4 -3 988.8
СЗ 3 16 км ясно -0.2 -9.3 50 -4 -4 988.8
С 2 16 км ясно -0.2 -9.5 49 -3 -3 989.1
СЗ 3 16 км ясно -1.1 -9.4 53 -5 -5 989.1
СЗ 3 16 км ясно -1.6 -9.2 56 -6 -6 989.1
СЗ 2 16 км ясно -1.5 -9.5 54 -5 -5 989.1
СЗ 2 16 км ясно -1.6 -9.3 56 -5 -5 989.1
штиль 0 16 км ясно -2.2 -9.0 60 -3 -3 989.1
штиль 0 16 км ясно -3.6 -8.7 68 -4 -4 989.1 -3.6 +1.2
штиль 0 16 км ясно -4.2 -8.5 72 -5 -5 989.1
штиль 0 16 км ясно -4.8 -8.6 75 -6 -6 989.1
штиль 0 16 км ясно -5.2 -8.5 78 -6 -6 989.1
штиль 0 16 км ясно -5.0 -9.0 73 -6 -6 989.1
штиль 0 16 км ясно -4.8 -8.8 74 -6 -6 989.1
штиль 0 16 км ясно -5.4 -9.1 75 -6 -6 988.8
штиль 0 16 км ясно -6.2 -9.0 81 -7 -7 988.8
штиль 0 16 км ясно -6.2 -9.1 80 -7 -7 989.1
штиль 0 16 км ясно -5.9 -8.4 82 -7 -7 989.1
штиль 0 16 км ясно -6.1 -8.3 84 -7 -7 989.5
Местоположение метеостанции Bedford County Airport: широта 40.0853 долгота -78.5122 высота над уровнем моря 351 м.
В архиве по умолчанию представлена погода в Бедфорде за последние 1-2 суток. Обновление информации о фактической погоде в базе происходит ежечасно! Архивные данные за месяц целиком и за предыдущие месяцы Вы можете получить, выбрав интересующий диапазон дат из раскрывающегося списка и нажав кнопку "Ввод!".
Внимание! Архив погоды МЕТАР в базе сайта по станциям, не включенным в климатический монитор, хранится не более 60 дней. Нет смысла пытаться выбрать более раннюю дату.
*Определитесь, кто Вы:
Внимание! Время в таблицах - местное (без учета летнего времени). Для получения всемирного времени необходимо вычесть поправку, которая равна -5 ч.
Смотрите также архив погоды в соседних городах и на ближайших метеорологических станциях:
Партнеры нашего сайта:      
Пояснения к столбцам:
  • Ветер - указаны скорость ветра в м/с - средняя за 10 мин, порывы в срок и между сроками (в фигурных скобках) и направление, откуда дует ветер: С - северный,
  • СВ - северо-восточный, В - восточный, ЮВ - юго-восточный, Ю - южный, ЮЗ - юго-западный, З - западный, СЗ - северо-западный.
  • Видимость - горизонтальная дальность видимости в метрах или километрах. При видимости от 1 до 10 км при отсутствии осадков обычно наблюдается дымка, при ухудшении видимости до 1 км и менее - туман. В сухую погоду видимость может ухудшаться дымом, пылью или мглою.
  • Явления - указаны атмосферные явления, наблюдавшиеся в срок или в последний час перед сроком; фигурными скобками обозначены явления, наблюдавшиеся между сроками (за 1-3 часа до срока); квадратными скобками обозначены град или гололедные отложения с указанием их диаметра в мм.
  • Облачность - указаны через наклонную черту общая и нижняя облачность в баллах и высота нижней границы облаков в метрах; квадратными скобками обозначены формы облаков: Ci - перистые, Cs - перисто-слоистые, Cc - перисто-кучевые, Ac - высококучевые, As - высокослоистые, Sc - слоисто-кучевые, Ns - слоисто-дождевые, Cu - кучевые, Cb - кучево-дождевые. Подробнее классификацию облаков см. в Атласе облаков (PDF).
  • T - Температура воздуха - температура, измеренная на высоте 2 м над землей.
  • Td - Температура точки росы - температура, при понижении до которой содержащийся в воздухе водяной пар достигнет насыщения.
  • f - Относительная влажность воздуха - влажноcть воздуха, измеренная на высоте 2 м над землей.
  • Te - Эффективная температура - температура, которую ощущает одетый по сезону человек в тени. Характеристика душности погоды. При расчете учитывается влияние влажности воздуха и скорости ветра на теплоощущения человека.
  • Tes - Эффективная температура на солнце - температура, которую ощущает человек, с поправкой на солнечный нагрев. Характеристика знойности погоды. Зависит от высоты солнца над горизонтом, облачности и скорости ветра. Ночью, в пасмурную погоду, а также при ветре 12 м/с и более поправка равна нулю.
  • P - Атмосферное давление - приведенное к уровню моря атмосферное давление.
  • Po - Атмосферное давление - измеренное на уровне метеостанции атмосферное давление.
  • Tmin - Минимальная температура - минимум температуры воздуха на высоте 2 м над землей.
  • Tmax - Максимальная температура - максимум температуры воздуха на высоте 2 м над землей.
  • R - Количество осадков - Количество выпавших осадков за период времени, мм. При наведении курсора мыши на число - период времени, за который выпало указанное количество осадков.
  • R24 - Количество осадков - Количество выпавших осадков за 24 часа, мм.
  • S - Снежный покров - Высота снежного покрова, см. При наведении курсора мыши на число - состояние снежного покрова и степень покрытия местности в баллах.